This demonstration page uses our WeatherBlox Daily Observations layout. Learn more.

Left ArrowRight Arrow

Hourly Observations for December 25, 2019

Temp ( °F °C ) Dew Point ( °F °C ) Humidity (%) Winds ( mph kmh ) Pressure ( in mb ) Visibility ( mi km ) Precip ( " mm )
12:52 am 00:52 Cloudy 33 0.6 31 -0.6 92 92 NW 3 6 29.70 1006 9 14 0.00 0.00
1:52 am 01:52 Cloudy 35 1.7 32 0 89 89 Calm 29.70 1006 10 16 0.00 0.00
2:52 am 02:52 Cloudy 43 6.1 36 2.2 76 76 SSE 10 17 29.69 1005 10 16 0.00 0.00
3:52 am 03:52 Cloudy 43 6.1 36 2.2 76 76 S 9 15 29.68 1005 10 16 0.00 0.00
4:52 am 04:52 Cloudy 43 6.1 36 2.2 76 76 S 8 13 29.69 1006 10 16 0.00 0.00
5:52 am 05:52 Cloudy 40 4.4 34 1.1 79 79 Calm 29.71 1006 10 16 0.00 0.00
6:52 am 06:52 Mostly Cloudy 34 1.1 32 0 92 92 N 10 17 29.73 1007 8 13 0.00 0.00
7:52 am 07:52 Mostly Cloudy 33 0.6 31 -0.6 92 92 N 8 13 29.73 1007 7 11 0.00 0.00
8:52 am 08:52 Partly Cloudy with Mist and Fog 33 0.6 31 -0.6 92 92 N 7 11 29.73 1007 5 8 0.00 0.00
9:52 am 09:52 Partly Cloudy with Mist and Fog 37 2.8 33 0.6 86 86 N 9 15 29.72 1007 6 10 0.00 0.00
10:52 am 10:52 Partly Cloudy 40 4.4 34 1.1 79 79 NNW 6 9 29.72 1006 7 11 0.00 0.00
11:52 am 11:52 Partly Cloudy 45 7.2 35 1.7 68 68 NNW 3 6 29.68 1005 8 13 0.00 0.00
12:52 pm 12:52 Mostly Cloudy 49 9.4 37 2.8 64 64 N 6 9 29.66 1005 10 16 0.00 0.00
1:52 pm 13:52 Partly Cloudy 52 11.1 39 3.9 61 61 N 9 15 29.65 1004 10 16 0.00 0.00
2:52 pm 14:52 Partly Cloudy 46 7.8 37 2.8 71 71 N 15 24 29.66 1005 9 14 0.00 0.00
3:52 pm 15:52 Mostly Cloudy 42 5.6 36 2.2 79 79 N 12 19 29.69 1005 8 13 0.00 0.00
4:52 pm 16:52 Mostly Cloudy with Haze 38 3.3 34 1.1 86 86 N 14 22 29.71 1006 6 10 0.00 0.00
5:46 pm 17:46 Partly Cloudy with Mist and Fog 36 2 32 0 87 87 N 14 22 29.77 1008 6 10 0.00 0.00
5:52 pm 17:52 Partly Cloudy with Mist and Fog 35 1.7 32 0 89 89 N 14 22 29.75 1007 5 8 0.00 0.00
6:02 pm 18:02 Mostly Cloudy with Mist and Fog 35 1.7 32 0 89 89 N 12 19 29.77 1008 5 8 0.00 0.00
6:52 pm 18:52 Cloudy with Mist and Fog 35 1.7 33 0.6 93 93 NNW 12 19 29.78 1009 5 8 0.00 0.00
7:52 pm 19:52 Cloudy with Mist and Fog 35 1.7 33 0.6 93 93 N 13 20 29.80 1009 5 8 0.00 0.00
8:52 pm 20:52 Cloudy with Mist and Fog 34 1.1 32 0 92 92 NNW 12 19 29.82 1010 5 8 0.00 0.00
9:52 pm 21:52 Cloudy with Mist and Fog 34 1.1 32 0 92 92 NNW 13 20 29.82 1010 4 6 0.00 0.00
10:52 pm 22:52 Cloudy with Mist and Fog 33 0.6 31 -0.6 92 92 NW 10 17 29.84 1011 4 6 0.00 0.00
11:52 pm 23:52 Cloudy with Mist and Fog 33 0.6 31 -0.6 92 92 NW 12 19 29.86 1011 4 6 0.00 0.00

Powered by AerisWeather